This demonstration page uses our WeatherBlox Daily Observations layout. Learn more.

38.89511, -77.03637

Hourly Observations for April 8, 2015

Temp ( °F °C ) Dew Point ( °F °C ) Humidity (%) Winds ( mph kmh ) Pressure ( in mb ) Visibility ( mi km ) Precip ( " mm )
12:07 am 00:07 Cloudy with Heavy Rain 57 14 54 12 88 88 NE 22 35 30.15 1021 4 6.437376 0.02 0.508
12:33 am 00:33 Cloudy with Heavy Rain 55 13 50 10 82 82 NE 22 35 30.18 1022 2.5 4.02336 0.13 3.302
12:52 am 00:52 Cloudy with Light Rain 54 12 48 9 82 82 NNE 15 24 30.18 1022 5 8.04672 0.15 3.81
1:52 am 01:52 Cloudy with Light Rain 52 11 46 8 82 82 ENE 17 28 30.18 1022 8 12.874752 0.04 1.016
2:45 am 02:45 Cloudy 52 11 46 8 82 82 NE 12 19 30.18 1022 10 16.09344 0.01 0.254
2:52 am 02:52 Cloudy 52 11 46 8 82 82 NE 15 24 30.18 1022 10 16.09344 0.01 0.254
3:52 am 03:52 Cloudy with Light Rain 50 10 45 7 82 82 NE 14 22 30.18 1022 10 16.09344 0.001 0.001
4:52 am 04:52 Cloudy with Light Drizzle 48 9 45 7 87 87 ENE 13 20 30.18 1022 6 9.656064 0.001 0.001
5:15 am 05:15 Cloudy with Light Drizzle 48 9 45 7 87 87 ENE 13 20 30.18 1022 6 9.656064 0.001 0.001
5:52 am 05:52 Cloudy with Light Drizzle 48 9 45 7 87 87 ENE 14 22 30.18 1022 6 9.656064 0.001 0.001
6:52 am 06:52 Cloudy with Light Drizzle 48 9 45 7 87 87 ENE 12 19 30.21 1023 4 6.437376 0.001 0.001
7:36 am 07:36 Cloudy with Light Drizzle 48 9 45 7 87 87 NE 10 17 30.21 1023 4 6.437376 0 0
7:52 am 07:52 Cloudy with Light Drizzle 48 9 45 7 87 87 ENE 13 20 30.24 1024 4 6.437376 0.001 0.001
8:23 am 08:23 Cloudy with Light Rain 48 9 43 6 82 82 ENE 12 19 30.24 1024 6 9.656064 0.01 0.254
8:27 am 08:27 Cloudy with Rain 48 9 45 7 87 87 ENE 10 17 30.24 1024 2.5 4.02336 0.02 0.508
8:30 am 08:30 Cloudy with Heavy Rain 48 9 45 7 87 87 ENE 9 15 30.24 1024 2 3.218688 0 0
8:34 am 08:34 Cloudy with Rain 48 9 45 7 87 87 ENE 10 17 30.24 1024 3 4.828032 0 0
8:52 am 08:52 Cloudy with Light Rain 48 9 45 7 87 87 NE 8 13 30.24 1024 6 9.656064 0.08 2.032
9:08 am 09:08 Cloudy with Light Rain 48 9 43 6 82 82 ENE 10 17 30.24 1024 7 11.265408 0 0
9:52 am 09:52 Cloudy with Light Rain 48 9 43 6 82 82 NNE 12 19 30.24 1024 10 16.09344 0.001 0.001
10:52 am 10:52 Cloudy 48 9 43 6 82 82 NE 14 22 30.24 1024 10 16.09344 0.001 0.001
11:52 am 11:52 Cloudy 50 10 43 6 76 76 ENE 15 24 30.24 1024 10 16.09344 0 0
12:52 pm 12:52 Cloudy 50 10 45 7 82 82 NE 9 15 30.24 1024 10 16.09344 0 0
1:52 pm 13:52 Cloudy 50 10 45 7 82 82 ENE 8 13 30.24 1024 10 16.09344 0 0
2:52 pm 14:52 Cloudy 50 10 45 7 82 82 NE 10 17 30.21 1023 10 16.09344 0.001 0.001
3:52 pm 15:52 Cloudy 50 10 45 7 82 82 NE 12 19 30.21 1023 10 16.09344 0 0
4:52 pm 16:52 Cloudy 50 10 45 7 82 82 ENE 9 15 30.21 1023 10 16.09344 0 0
5:52 pm 17:52 Cloudy 50 10 45 7 82 82 ENE 10 17 30.18 1022 10 16.09344 0 0
6:43 pm 18:43 Cloudy 48 9 43 6 82 82 NE 3 6 30.24 1024 10 16.09344 0 0
6:52 pm 18:52 Cloudy 48 9 43 6 82 82 ENE 5 7 30.21 1023 10 16.09344 0 0
7:42 pm 19:42 Cloudy with Light Rain 48 9 45 7 87 87 E 15 24 30.12 1020 10 16.09344 0 0
7:52 pm 19:52 Cloudy with Light Rain 48 9 45 7 87 87 ESE 15 24 30.09 1019 10 16.09344 0.001 0.001
8:03 pm 20:03 Cloudy 48 9 45 7 87 87 ESE 9 15 30.12 1020 10 16.09344 0 0
8:29 pm 20:29 Cloudy 48 9 43 6 82 82 N 9 15 30.18 1022 10 16.09344 0.001 0.001
8:52 pm 20:52 Cloudy 48 9 43 6 82 82 NNE 8 13 30.18 1022 10 16.09344 0.001 0.001
9:52 pm 21:52 Cloudy with Mist and Fog 46 8 43 6 87 87 NE 9 15 30.18 1022 6 9.656064 0 0
10:52 pm 22:52 Cloudy 46 8 43 6 87 87 ENE 10 17 30.21 1023 10 16.09344 0 0
11:52 pm 23:52 Cloudy with Light Drizzle 46 8 43 6 87 87 NE 9 15 30.21 1023 3 4.828032 0.001 0.001

Powered by AerisWeather